DW4641 Stratford CT US current weather conditions

sailwx.info

Wind from 228 at 3 knots gusting 6

Air temperature 6.7° C
Dewpoint 0.1° C

Last reported at 2019-Dec-15 13:10 UTC.
Time now 2019-Dec-15 14:08 UTC

Location: N 41°12' W 073°08'.
View on Google Maps.

See reports from other nearby stations

  
Tides and Currents Weather Stations Pressure Air Temp Water Temp Dewpoint Dewpoint Depression Visibility Wind Speed Wind Dir Waves Ship Positions
date/time (UTC)wind fromknots sea level pressurealtimeterstation pressurevisibilityair tempwater tempwave heightnotes
2019-Dec-15 13:10 228 3 gusting 6 6.7
2019-Dec-15 13:05 227 3 gusting 9 6.7
2019-Dec-15 13:00 236 2 gusting 9 6.7
2019-Dec-15 12:55 223 2 gusting 6 6.1
2019-Dec-15 12:50 244 3 gusting 9 6.1
2019-Dec-15 12:45 257 2 gusting 9 6.1
2019-Dec-15 12:40 230 3 gusting 10 6.1
2019-Dec-15 12:35 222 3 gusting 10 6.1
2019-Dec-15 12:30 235 2 gusting 9 6.1
2019-Dec-15 12:25 252 1 gusting 9 6.1
2019-Dec-15 12:20 254 1 gusting 7 6.1
2019-Dec-15 12:15 240 2 gusting 7 6.1
2019-Dec-15 12:10 231 2 gusting 7 6.1
2019-Dec-15 12:05 244 2 gusting 9 6.1
2019-Dec-15 12:00 242 3 gusting 9 5.6
2019-Dec-15 11:55 236 2 gusting 8 5.6
2019-Dec-15 11:50 251 1 gusting 5 5.6
2019-Dec-15 11:45 241 2 gusting 5 5.6
2019-Dec-15 11:40 224 2 gusting 7 5.6
2019-Dec-15 11:35 233 2 gusting 7 5.6
2019-Dec-15 11:30 244 2 gusting 6 5.6
2019-Dec-15 11:25 240 2 gusting 7 5.6
2019-Dec-15 11:20 245 2 gusting 7 5.6
2019-Dec-15 11:15 247 2 gusting 6 5.6
2019-Dec-15 11:10 258 2 gusting 6 5.6
2019-Dec-15 11:05 268 3 gusting 9 5.6
2019-Dec-15 11:00 248 3 gusting 12 5.6
2019-Dec-15 10:55 235 2 gusting 12 5.6
2019-Dec-15 10:50 239 2 gusting 6 5.6
2019-Dec-15 10:45 250 2 gusting 9 5.6
2019-Dec-15 10:40 249 2 gusting 9 5.6
2019-Dec-15 10:35 254 2 gusting 8 5.6
2019-Dec-15 10:30 261 3 gusting 8 5.6
2019-Dec-15 10:25 248 3 gusting 8 5.6
2019-Dec-15 10:20 232 2 gusting 7 5.6
2019-Dec-15 10:15 238 2 gusting 9 6.1
2019-Dec-15 10:10 246 2 gusting 9 6.1
2019-Dec-15 10:05 255 2 gusting 9 6.1
2019-Dec-15 10:00 254 3 gusting 11 6.1
2019-Dec-15 09:55 246 3 gusting 11 6.1
2019-Dec-15 09:50 249 3 gusting 11 6.1
2019-Dec-15 09:45 246 3 gusting 11 6.1
2019-Dec-15 09:40 226 3 gusting 7 6.1
2019-Dec-15 09:35 231 2 gusting 7 6.1
2019-Dec-15 09:30 233 2 gusting 7 6.1
2019-Dec-15 09:25 238 3 gusting 13 6.1
2019-Dec-15 09:20 246 4 gusting 13 6.1
2019-Dec-15 09:15 249 4 gusting 13 6.1
2019-Dec-15 09:10 266 4 gusting 13 6.1
2019-Dec-15 09:05 264 4 gusting 13 6.1
2019-Dec-15 09:00 253 4 gusting 11 6.1
2019-Dec-15 08:55 250 3 gusting 11 6.1
2019-Dec-15 08:50 248 3 gusting 10 6.1
2019-Dec-15 08:45 262 3 gusting 9 6.1
2019-Dec-15 08:40 257 4 gusting 13 6.1
2019-Dec-15 08:35 256 4 gusting 13 5.6
2019-Dec-15 08:30 256 3 gusting 10 5.6
2019-Dec-15 08:25 250 3 gusting 10 5.6
2019-Dec-15 08:20 248 3 gusting 12 5.6
2019-Dec-15 08:15 250 3 gusting 12 5.6
2019-Dec-15 08:10 269 4 gusting 12 5.6
2019-Dec-15 08:05 274 3 gusting 12 5.6
2019-Dec-15 08:00 264 3 gusting 12 5.6
2019-Dec-15 07:55 256 4 gusting 14 5.6
2019-Dec-15 07:50 240 3 gusting 14 5.6
2019-Dec-15 07:45 235 3 gusting 8 5.6
2019-Dec-15 07:40 250 3 gusting 11 5.6
2019-Dec-15 07:35 268 4 gusting 11 5.6
2019-Dec-15 07:30 271 3 gusting 9 5.6
2019-Dec-15 07:25 255 2 gusting 7 5.6
2019-Dec-15 07:20 239 1 gusting 7 5.6
2019-Dec-15 07:15 249 2 gusting 9 5.6
2019-Dec-15 07:10 255 2 gusting 10 5.6
2019-Dec-15 07:05 254 2 gusting 10 5.6
2019-Dec-15 07:00 248 3 gusting 8 5.6
2019-Dec-15 06:55 232 2 gusting 8 5.6
2019-Dec-15 06:50 232 2 gusting 9 5.6
2019-Dec-15 06:45 249 2 gusting 9 5.6
2019-Dec-15 06:40 241 3 gusting 9 5.6
2019-Dec-15 06:35 232 3 gusting 7 5.6
2019-Dec-15 06:30 244 2 gusting 7 5.6
2019-Dec-15 06:25 254 2 gusting 10 5.6
2019-Dec-15 06:20 249 3 gusting 10 5.6
2019-Dec-15 06:15 265 3 gusting 12 5.6
2019-Dec-15 06:10 267 3 gusting 12 5.6
2019-Dec-15 06:05 251 2 gusting 7 5.6
2019-Dec-15 06:00 244 3 gusting 10 5.6
2019-Dec-15 05:55 247 3 gusting 10 5.6
2019-Dec-15 05:50 247 3 gusting 12 5.6
2019-Dec-15 05:45 251 4 gusting 12 5.6
2019-Dec-15 05:40 256 3 gusting 12 5.6
2019-Dec-15 05:35 251 3 gusting 12 5.6
2019-Dec-15 05:30 260 3 gusting 12 5.6
2019-Dec-15 05:25 265 3 gusting 12 5.6
2019-Dec-15 05:20 266 4 gusting 12 6.1
2019-Dec-15 05:15 254 3 gusting 8 6.1
2019-Dec-15 05:10 242 3 gusting 8 6.1
2019-Dec-15 05:05 260 3 gusting 8 6.1
2019-Dec-15 05:00 256 3 gusting 10 6.1
2019-Dec-15 04:55 244 3 gusting 11 6.1
2019-Dec-15 04:50 249 3 gusting 11 6.1
2019-Dec-15 04:45 244 2 gusting 10 6.1
2019-Dec-15 04:40 245 3 gusting 10 6.7
2019-Dec-15 04:35 248 3 gusting 12 6.7
2019-Dec-15 04:30 251 3 gusting 12 6.7
2019-Dec-15 04:25 271 4 gusting 13 6.7
2019-Dec-15 04:20 272 4 gusting 13 6.7
2019-Dec-15 04:15 262 4 gusting 10 7.2
2019-Dec-15 04:05 259 4 gusting 13 8.3
2019-Dec-15 04:00 229 4 gusting 11 8.9
2019-Dec-15 03:55 228 3 gusting 11 8.9
2019-Dec-15 03:50 224 2 gusting 7 8.9
2019-Dec-15 03:45 216 3 gusting 8 8.9
2019-Dec-15 03:40 214 4 gusting 11 8.9
2019-Dec-15 03:35 215 3 gusting 11 8.9
2019-Dec-15 03:30 221 3 gusting 13 8.9
2019-Dec-15 03:25 218 3 gusting 13 8.9
2019-Dec-15 03:20 213 3 gusting 11 8.9
2019-Dec-15 03:15 224 3 gusting 9 8.9
2019-Dec-15 03:10 229 3 gusting 9 9.4
2019-Dec-15 03:05 229 3 gusting 8 9.4
2019-Dec-15 03:00 213 4 gusting 13 9.4
2019-Dec-15 02:55 204 4 gusting 13 9.4
2019-Dec-15 02:50 207 3 gusting 8 9.4
2019-Dec-15 02:45 211 3 gusting 8 9.4
2019-Dec-15 02:40 214 4 gusting 13 9.4
2019-Dec-15 02:35 208 5 gusting 13 9.4
2019-Dec-15 02:30 205 4 gusting 12 9.4
2019-Dec-15 02:25 216 3 gusting 9 10.0
2019-Dec-15 02:20 217 3 gusting 7 10.0
2019-Dec-15 02:15 221 3 gusting 7 10.0
2019-Dec-15 02:10 221 3 gusting 7 10.0
2019-Dec-15 02:05 208 5 gusting 16 10.0
2019-Dec-15 02:00 204 6 gusting 16 10.0
2019-Dec-15 01:55 205 5 gusting 16 10.0
2019-Dec-15 01:50 211 5 gusting 16 10.0
2019-Dec-15 01:45 208 5 gusting 10 10.0
2019-Dec-15 01:40 207 5 gusting 14 10.0
2019-Dec-15 01:35 209 4 gusting 14 10.0
2019-Dec-15 01:30 209 4 gusting 10 10.0
2019-Dec-15 01:25 207 4 gusting 10 10.0
2019-Dec-15 01:20 201 4 gusting 10 10.0
2019-Dec-15 01:15 200 3 gusting 9 10.0
2019-Dec-15 01:10 203 3 gusting 9 10.0
2019-Dec-15 01:05 200 5 gusting 12 10.0
2019-Dec-15 01:00 199 6 gusting 13 10.0
2019-Dec-15 00:55 204 5 gusting 13 10.0
2019-Dec-15 00:50 203 5 gusting 13 10.0
2019-Dec-15 00:45 200 5 gusting 13 10.0
2019-Dec-15 00:40 201 5 gusting 13 10.0
2019-Dec-15 00:35 200 6 gusting 16 10.0
2019-Dec-15 00:30 197 5 gusting 16 10.0
2019-Dec-15 00:25 197 5 gusting 13 10.0
2019-Dec-15 00:20 199 5 gusting 13 10.6
2019-Dec-15 00:15 202 5 gusting 11 10.6
2019-Dec-15 00:10 201 4 gusting 11 10.6
2019-Dec-15 00:05 201 3 gusting 9 10.6
2019-Dec-15 00:00 201 3 gusting 9 10.6
2019-Dec-14 23:55 201 3 gusting 7 10.6
2019-Dec-14 23:50 207 3 gusting 6 10.6
2019-Dec-14 23:45 211 2 gusting 6 10.6
2019-Dec-14 23:40 208 2 gusting 7 10.6
2019-Dec-14 23:35 201 3 gusting 10 11.1
2019-Dec-14 23:30 199 3 gusting 10 11.1
2019-Dec-14 23:25 198 4 gusting 11 11.1
2019-Dec-14 23:20 202 4 gusting 13 11.1
2019-Dec-14 23:15 201 4 gusting 13 11.1
2019-Dec-14 23:10 199 4 gusting 10 11.1
2019-Dec-14 23:05 201 4 gusting 14 11.1
2019-Dec-14 23:00 205 4 gusting 14 11.1
2019-Dec-14 22:55 203 4 gusting 13 11.1
2019-Dec-14 22:50 193 4 gusting 11 11.1
2019-Dec-14 22:45 187 4 gusting 11 11.1
2019-Dec-14 22:40 185 5 gusting 13 11.1
2019-Dec-14 22:35 187 4 gusting 13 11.1
2019-Dec-14 22:30 192 4 gusting 10 11.1
2019-Dec-14 22:25 188 4 gusting 13 11.1
2019-Dec-14 22:20 189 4 gusting 13 11.1
2019-Dec-14 22:15 194 4 gusting 12 11.1
2019-Dec-14 22:10 193 4 gusting 12 11.1
2019-Dec-14 22:05 192 3 gusting 9 11.7
2019-Dec-14 21:55 193 4 gusting 11 11.7
2019-Dec-14 21:50 192 3 gusting 10 11.7
2019-Dec-14 21:45 189 3 gusting 9 11.7
2019-Dec-14 21:40 187 4 gusting 11 11.7
2019-Dec-14 21:35 190 5 gusting 11 11.7
2019-Dec-14 21:30 195 4 gusting 11 11.7
2019-Dec-14 21:25 194 3 gusting 10 12.2
2019-Dec-14 21:20 190 2 gusting 10 12.2
2019-Dec-14 21:10 201 3 gusting 7 12.2
2019-Dec-14 21:05 205 2 gusting 6 12.2
2019-Dec-14 21:00 201 2 gusting 6 12.2
2019-Dec-14 20:55 190 2 gusting 10 12.2
2019-Dec-14 20:50 188 1 gusting 10 12.2
2019-Dec-14 20:45 192 1 gusting 7 12.2
2019-Dec-14 20:40 186 1 gusting 7 12.2
2019-Dec-14 20:35 170 0 gusting 5 11.7
2019-Dec-14 20:30 165 0 gusting 5 11.7
2019-Dec-14 20:25 164 11.7
2019-Dec-14 20:20 107 11.7
2019-Dec-14 20:15 106 11.7
2019-Dec-14 20:10 106 11.7
2019-Dec-14 20:05 107 0 gusting 2 11.7
2019-Dec-14 20:00 107 0 gusting 2 11.7
2019-Dec-14 19:55 107 0 gusting 3 12.2
2019-Dec-14 19:50 108 0 gusting 5 11.7
2019-Dec-14 19:45 108 11.7
2019-Dec-14 19:40 099 11.7
2019-Dec-14 19:35 099 0 gusting 2 11.7
2019-Dec-14 19:30 099 0 gusting 2 11.7
2019-Dec-14 19:25 098 0 gusting 2 11.1
2019-Dec-14 19:20 100 11.1
2019-Dec-14 19:15 100 11.1
2019-Dec-14 19:10 11.1
2019-Dec-14 19:05 11.1
2019-Dec-14 19:00 11.1
2019-Dec-14 18:55 11.1
2019-Dec-14 18:50 11.1
2019-Dec-14 18:45 11.1
2019-Dec-14 18:40 11.1
2019-Dec-14 18:35 098 10.6
2019-Dec-14 18:30 098 0 gusting 3 10.6
2019-Dec-14 18:25 098 0 gusting 3 10.6
2019-Dec-14 18:20 10.6
2019-Dec-14 18:15 10.6
2019-Dec-14 18:10 10.6
2019-Dec-14 18:05 094 10.6
2019-Dec-14 18:00 093 0 gusting 2 10.6
2019-Dec-14 17:55 093 10.6
2019-Dec-14 17:50 091 10.0
2019-Dec-14 17:45 091 0 gusting 3 10.0
2019-Dec-14 17:40 092 0 gusting 3 10.0
2019-Dec-14 17:35 093 0 gusting 3 10.0
2019-Dec-14 17:30 094 10.0
2019-Dec-14 17:25 10.0
2019-Dec-14 17:20 10.0
2019-Dec-14 17:15 10.0
2019-Dec-14 17:10 10.0
2019-Dec-14 17:05 10.0
2019-Dec-14 17:00 10.0
2019-Dec-14 16:55 10.0
2019-Dec-14 16:50 10.0
2019-Dec-14 16:45 10.0
2019-Dec-14 16:40 9.4
2019-Dec-14 16:35 9.4
2019-Dec-14 16:30 9.4
2019-Dec-14 16:25 9.4
2019-Dec-14 16:20 9.4
2019-Dec-14 16:15 9.4
2019-Dec-14 16:10 9.4
2019-Dec-14 16:05 090 9.4
2019-Dec-14 16:00 090 8.9
2019-Dec-14 15:55 090 8.9
2019-Dec-14 15:50 089 8.9
2019-Dec-14 15:45 089 0 gusting 2 8.9
2019-Dec-14 15:40 088 0 gusting 2 8.9
2019-Dec-14 15:35 088 0 gusting 2 8.9
2019-Dec-14 15:30 088 8.9
2019-Dec-14 15:25 8.9
2019-Dec-14 15:20 8.9
2019-Dec-14 15:15 8.9
2019-Dec-14 15:10 8.9
2019-Dec-14 15:05 8.9
2019-Dec-14 15:00 8.9
2019-Dec-14 14:55 089 8.9
2019-Dec-14 14:50 088 8.9
2019-Dec-14 14:45 088 8.9
2019-Dec-14 14:40 088 0 gusting 2 8.9
2019-Dec-14 14:35 088 0 gusting 2 8.9
2019-Dec-14 14:30 088 0 gusting 2 8.9
2019-Dec-14 14:25 089 8.9
2019-Dec-14 14:20 089 8.9
2019-Dec-14 14:15 8.9
2019-Dec-14 14:10 8.9
2019-Dec-14 14:05 8.9
2019-Dec-14 14:00 090 8.9
2019-Dec-14 13:55 090 8.9
2019-Dec-14 13:50 090 8.9
2019-Dec-14 13:45 090 8.9
2019-Dec-14 13:40 090 8.9
2019-Dec-14 13:35 8.9
2019-Dec-14 13:30 8.9
2019-Dec-14 13:25 090 8.9
2019-Dec-14 13:20 090 8.9
2019-Dec-14 13:15 090 8.9
2019-Dec-14 13:10 8.9
2019-Dec-14 13:05 090 8.3
2019-Dec-14 13:00 094 8.3
2019-Dec-14 12:55 094 0 gusting 3 8.3
2019-Dec-14 12:50 094 0 gusting 3 8.3
2019-Dec-14 12:45 097 0 gusting 3 8.3
2019-Dec-14 12:40 104 0 gusting 5 8.3
2019-Dec-14 12:35 105 0 gusting 5 8.3
2019-Dec-14 12:30 101 0 gusting 5 8.3
2019-Dec-14 12:25 101 0 gusting 3 8.3
2019-Dec-14 12:20 102 1 gusting 3 8.3
2019-Dec-14 12:15 097 1 gusting 3 8.3
2019-Dec-14 12:10 087 1 gusting 3 8.9
2019-Dec-14 12:05 072 0 gusting 3 8.9
2019-Dec-14 12:00 060 0 gusting 3 8.9
2019-Dec-14 11:55 085 0 gusting 3 8.9
2019-Dec-14 11:50 102 0 gusting 3 8.9
2019-Dec-14 11:45 101 0 gusting 3 8.9
2019-Dec-14 11:40 093 0 gusting 3 8.9
2019-Dec-14 11:35 082 0 gusting 2 8.9
2019-Dec-14 11:30 077 0 gusting 2 8.9
2019-Dec-14 11:25 042 8.9
2019-Dec-14 11:20 042 8.9
2019-Dec-14 10:55 045 0 gusting 2 8.9
2019-Dec-14 10:50 050 0 gusting 3 8.9
2019-Dec-14 10:45 053 0 gusting 3 8.9
2019-Dec-14 10:40 053 0 gusting 3 8.9
2019-Dec-14 10:35 054 8.9
2019-Dec-14 10:30 8.9
2019-Dec-14 10:25 090 8.9
2019-Dec-14 10:20 090 8.9
2019-Dec-14 10:15 092 8.9
2019-Dec-14 10:10 095 0 gusting 3 8.9
2019-Dec-14 10:05 095 1 gusting 6 8.9
2019-Dec-14 10:00 093 0 gusting 6 8.9
2019-Dec-14 09:55 106 0 gusting 3 8.9
2019-Dec-14 09:50 121 0 gusting 6 8.9
2019-Dec-14 09:45 074 0 gusting 6 8.9
2019-Dec-14 09:40 073 0 gusting 3 8.9
2019-Dec-14 09:35 109 0 gusting 3 8.9
2019-Dec-14 09:30 085 0 gusting 3 8.9
2019-Dec-14 09:25 074 0 gusting 3 8.9
2019-Dec-14 09:20 075 0 gusting 5 8.9
2019-Dec-14 09:05 092 1 gusting 6 8.9
2019-Dec-14 09:00 087 1 gusting 5 8.9
2019-Dec-14 08:55 097 1 gusting 5 8.9
2019-Dec-14 08:50 083 0 gusting 3 8.9
2019-Dec-14 08:45 096 0 gusting 3 8.9
2019-Dec-14 08:40 117 1 gusting 6 8.9
2019-Dec-14 08:35 102 2 gusting 10 8.9
2019-Dec-14 08:30 103 2 gusting 10 8.9
2019-Dec-14 08:25 098 2 gusting 6 8.9
2019-Dec-14 08:20 079 1 gusting 6 8.3
2019-Dec-14 08:15 058 1 gusting 5 8.3
2019-Dec-14 08:10 060 1 gusting 5 8.3
2019-Dec-14 08:05 082 1 gusting 6 8.3
2019-Dec-14 08:00 109 1 gusting 6 8.3
2019-Dec-14 07:55 102 2 gusting 7 8.3
2019-Dec-14 07:50 074 2 gusting 7 8.3
2019-Dec-14 07:45 049 1 gusting 5 8.3
2019-Dec-14 07:40 069 1 gusting 5 8.3
2019-Dec-14 07:35 101 2 gusting 6 8.3
2019-Dec-14 07:30 104 2 gusting 6 8.3
2019-Dec-14 07:25 101 1 gusting 5 8.3
2019-Dec-14 07:20 103 1 gusting 6 8.9
2019-Dec-14 07:15 108 2 gusting 7 8.9
2019-Dec-14 07:10 106 2 gusting 7 8.9
2019-Dec-14 07:05 098 1 gusting 6 8.9
2019-Dec-14 07:00 098 1 gusting 5 8.9
2019-Dec-14 06:55 103 2 gusting 6 8.3
2019-Dec-14 06:50 104 2 gusting 6 8.3
2019-Dec-14 06:45 107 2 gusting 6 8.3
2019-Dec-14 06:40 109 1 gusting 6 8.3
2019-Dec-14 06:35 091 1 gusting 7 8.3
2019-Dec-14 06:30 082 1 gusting 7 8.3
2019-Dec-14 06:25 090 1 gusting 6 8.3
2019-Dec-14 06:20 083 1 gusting 6 8.3
2019-Dec-14 06:15 104 1 gusting 6 8.3
2019-Dec-14 06:10 112 1 gusting 6 8.3
2019-Dec-14 06:05 108 1 gusting 4 8.3
2019-Dec-14 06:00 116 1 gusting 6 8.9
2019-Dec-14 05:55 102 1 gusting 6 8.9
2019-Dec-14 05:50 093 1 gusting 6 8.9
2019-Dec-14 05:45 103 2 gusting 10 8.9
2019-Dec-14 05:40 105 3 gusting 10 8.9
2019-Dec-14 05:35 105 2 gusting 7 8.9
2019-Dec-14 05:30 100 1 gusting 5 8.9
2019-Dec-14 05:25 092 2 gusting 11 8.9
2019-Dec-14 05:20 100 3 gusting 11 8.9
2019-Dec-14 05:15 103 5 gusting 13 8.9
2019-Dec-14 05:10 105 3 gusting 13 8.9
2019-Dec-14 05:05 110 2 gusting 8 8.9
2019-Dec-14 05:00 106 3 gusting 8 8.9
2019-Dec-14 04:55 107 3 gusting 7 8.9
2019-Dec-14 04:50 108 3 gusting 8 8.9
2019-Dec-14 04:45 103 2 gusting 8 8.3
2019-Dec-14 04:40 098 3 gusting 8 8.3
2019-Dec-14 04:35 101 3 gusting 8 8.3
2019-Dec-14 04:30 106 2 gusting 8 7.8
2019-Dec-14 04:25 107 2 gusting 8 7.8
2019-Dec-14 04:20 109 1 gusting 6 7.8
2019-Dec-14 04:15 103 2 gusting 6 7.8
2019-Dec-14 04:10 096 2 gusting 6 7.8
2019-Dec-14 04:05 102 1 gusting 6 8.3
2019-Dec-14 04:00 104 2 gusting 6 8.3
2019-Dec-14 03:55 102 2 gusting 7 8.3
2019-Dec-14 03:50 107 2 gusting 7 8.3
2019-Dec-14 03:45 105 3 gusting 7 7.8
2019-Dec-14 03:40 103 3 gusting 7 7.8
2019-Dec-14 03:35 103 2 gusting 7 7.8
2019-Dec-14 03:30 103 2 gusting 6 7.8
2019-Dec-14 03:25 106 2 gusting 6 7.8
2019-Dec-14 03:20 103 2 gusting 6 7.8
2019-Dec-14 03:15 098 2 gusting 7 7.8
2019-Dec-14 03:10 100 2 gusting 10 7.8
2019-Dec-14 03:05 096 3 gusting 10 7.2
2019-Dec-14 03:00 095 2 gusting 7 7.2
2019-Dec-14 02:55 102 2 gusting 6 7.2
2019-Dec-14 02:50 102 2 gusting 6 7.2
2019-Dec-14 02:45 112 1 gusting 6 6.7
2019-Dec-14 02:40 115 2 gusting 6 6.7
2019-Dec-14 02:35 099 2 gusting 6 6.7
2019-Dec-14 02:30 096 1 gusting 6 6.7
2019-Dec-14 02:25 107 1 gusting 6 6.7
2019-Dec-14 02:20 112 1 gusting 6 6.1
2019-Dec-14 02:15 112 1 gusting 5 6.1
2019-Dec-14 02:10 114 1 gusting 5 6.1
2019-Dec-14 02:05 118 1 gusting 6 6.1
2019-Dec-14 02:00 115 1 gusting 6 6.1
2019-Dec-14 01:55 103 1 gusting 9 6.1
2019-Dec-14 01:50 099 2 gusting 9 6.1
2019-Dec-14 01:45 094 2 gusting 6 6.1
2019-Dec-14 01:40 089 1 gusting 6 6.1
2019-Dec-14 01:35 084 1 gusting 6 5.6
2019-Dec-14 01:30 087 1 gusting 6 5.6
2019-Dec-14 01:25 096 1 gusting 3 5.6
2019-Dec-14 01:20 107 1 gusting 5 5.6
2019-Dec-14 01:15 110 1 gusting 6 5.6
2019-Dec-14 01:10 104 1 gusting 6 5.6
2019-Dec-14 01:05 100 1 gusting 5 5.6
2019-Dec-14 01:00 095 1 gusting 5 5.6
2019-Dec-14 00:55 092 1 gusting 5 5.6
2019-Dec-14 00:50 101 1 gusting 5 5.6
2019-Dec-14 00:45 098 1 gusting 6 5.6
2019-Dec-14 00:40 091 1 gusting 6 5.0
2019-Dec-14 00:35 096 1 gusting 3 5.0
2019-Dec-14 00:30 095 1 gusting 6 5.0
2019-Dec-14 00:25 090 1 gusting 6 5.0
2019-Dec-14 00:20 085 1 gusting 3 5.0
2019-Dec-14 00:15 089 1 gusting 5 5.0
2019-Dec-14 00:10 097 1 gusting 8 5.0
2019-Dec-14 00:05 098 1 gusting 8 5.0
2019-Dec-14 00:00 099 1 gusting 6 4.4
2019-Dec-13 23:55 104 1 gusting 6 4.4
2019-Dec-13 23:50 103 1 gusting 3 4.4
2019-Dec-13 23:45 107 1 gusting 3 4.4
2019-Dec-13 23:40 112 1 gusting 5 4.4
2019-Dec-13 23:35 113 2 gusting 6 4.4
2019-Dec-13 23:30 112 2 gusting 7 4.4
2019-Dec-13 23:25 111 2 gusting 7 4.4
2019-Dec-13 23:20 113 2 gusting 6 5.0
2019-Dec-13 23:15 118 1 gusting 6 5.0
2019-Dec-13 23:10 128 2 gusting 6 5.0
2019-Dec-13 23:05 127 2 gusting 6 5.0
2019-Dec-13 23:00 112 1 gusting 5 5.0
2019-Dec-13 22:55 107 1 gusting 6 5.0
2019-Dec-13 22:50 107 1 gusting 6 5.6
2019-Dec-13 22:45 100 2 gusting 6 5.6
2019-Dec-13 22:40 091 2 gusting 6 5.6
2019-Dec-13 22:35 090 1 gusting 5 5.6
2019-Dec-13 22:30 095 1 gusting 3 5.6
2019-Dec-13 22:25 095 1 gusting 3 5.6
2019-Dec-13 22:20 096 1 gusting 6 5.6
2019-Dec-13 22:15 096 1 gusting 6 5.6
2019-Dec-13 22:10 093 0 gusting 3 5.6
2019-Dec-13 22:05 096 0 gusting 3 5.6
2019-Dec-13 22:00 100 0 gusting 3 5.6
2019-Dec-13 21:55 103 1 gusting 3 5.6
2019-Dec-13 21:50 102 0 gusting 3 5.0
2019-Dec-13 21:45 102 0 gusting 3 5.0
2019-Dec-13 21:40 103 0 gusting 2 5.0
2019-Dec-13 21:35 104 0 gusting 6 5.0
2019-Dec-13 21:30 104 1 gusting 6 5.0
2019-Dec-13 21:25 103 1 gusting 3 5.0
2019-Dec-13 21:20 099 1 gusting 5 5.0
2019-Dec-13 21:15 090 1 gusting 5 5.0
2019-Dec-13 21:10 090 1 gusting 3 5.0
2019-Dec-13 21:05 097 1 gusting 3 5.0
2019-Dec-13 21:00 100 1 gusting 3 5.0
2019-Dec-13 20:55 099 0 gusting 5 5.0
2019-Dec-13 20:50 096 0 gusting 5 5.0
2019-Dec-13 20:45 093 0 gusting 3 5.0
2019-Dec-13 20:40 093 0 gusting 3 4.4
2019-Dec-13 20:35 093 0 gusting 2 4.4
2019-Dec-13 20:30 093 0 gusting 3 4.4
2019-Dec-13 20:25 093 0 gusting 3 4.4
2019-Dec-13 20:20 093 0 gusting 3 4.4
2019-Dec-13 20:15 093 0 gusting 3 4.4
2019-Dec-13 20:10 093 0 gusting 2 4.4
2019-Dec-13 20:05 094 0 gusting 2 4.4
2019-Dec-13 20:00 096 0 gusting 5 3.9
2019-Dec-13 19:55 097 0 gusting 5 3.9
2019-Dec-13 19:50 097 1 gusting 2 3.9
2019-Dec-13 19:45 097 0 gusting 2 3.9
2019-Dec-13 19:40 097 0 gusting 3 3.9
2019-Dec-13 19:35 097 1 gusting 5 3.9
2019-Dec-13 19:30 096 1 gusting 5 3.3
2019-Dec-13 19:25 097 0 gusting 3 3.3
2019-Dec-13 19:20 098 0 gusting 3 3.3
2019-Dec-13 19:15 098 0 gusting 3 3.3
2019-Dec-13 19:10 101 1 gusting 3 3.3
2019-Dec-13 19:05 102 1 gusting 3 3.3
2019-Dec-13 19:00 103 1 gusting 2 3.3
2019-Dec-13 18:55 103 1 gusting 3 2.8
2019-Dec-13 18:50 103 0 gusting 3 2.8
2019-Dec-13 18:45 103 1 gusting 5 2.8
2019-Dec-13 18:40 103 1 gusting 6 2.8
2019-Dec-13 18:35 100 1 gusting 6 2.8
2019-Dec-13 18:30 095 1 gusting 6 2.8
2019-Dec-13 18:25 088 1 gusting 3 2.8
2019-Dec-13 18:20 088 1 gusting 3 2.8
2019-Dec-13 18:15 088 0 gusting 2 2.8
2019-Dec-13 18:10 089 0 gusting 2 2.8
2019-Dec-13 18:05 089 0 gusting 2 2.8
2019-Dec-13 18:00 090 0 gusting 2 2.8
2019-Dec-13 17:55 090 0 gusting 2 2.8
2019-Dec-13 17:50 090 0 gusting 2 2.8
2019-Dec-13 17:45 090 0 gusting 2 2.8
2019-Dec-13 17:40 089 0 gusting 3 2.8
2019-Dec-13 17:35 089 1 gusting 3 2.8
2019-Dec-13 17:30 090 0 gusting 3 2.8
2019-Dec-13 17:25 090 0 gusting 3 2.8
2019-Dec-13 17:20 088 0 gusting 6 2.8
2019-Dec-13 17:15 085 0 gusting 6 2.8
2019-Dec-13 17:10 085 0 gusting 2 2.8
2019-Dec-13 17:05 084 0 gusting 3 2.8
2019-Dec-13 17:00 085 1 gusting 3 3.3
2019-Dec-13 16:55 088 1 gusting 3 3.3
2019-Dec-13 16:50 090 1 gusting 3 3.3
2019-Dec-13 16:45 091 0 gusting 2 3.3
2019-Dec-13 16:40 091 0 gusting 3 3.3
2019-Dec-13 16:35 091 1 gusting 3 3.3
2019-Dec-13 16:30 091 1 gusting 3 3.3
2019-Dec-13 16:25 090 0 gusting 2 3.3
2019-Dec-13 16:20 090 0 gusting 2 3.3
2019-Dec-13 16:15 3.3
2019-Dec-13 16:10 3.3
2019-Dec-13 16:05 3.3
2019-Dec-13 16:00 3.3
2019-Dec-13 15:55 3.3
2019-Dec-13 15:50 094 3.3
2019-Dec-13 15:45 094 3.3
2019-Dec-13 15:40 093 0 gusting 2 2.8
2019-Dec-13 15:35 093 0 gusting 3 2.8
2019-Dec-13 15:30 093 1 gusting 3 2.8
2019-Dec-13 15:25 102 1 gusting 3 2.8
2019-Dec-13 15:20 111 1 gusting 3 2.8
2019-Dec-13 15:15 112 1 gusting 3 2.8
2019-Dec-13 15:10 114 0 gusting 3 2.8
2019-Dec-13 15:05 114 2.8
2019-Dec-13 15:00 2.8
2019-Dec-13 14:55 2.8
2019-Dec-13 14:50 2.2
2019-Dec-13 14:45 2.2
2019-Dec-13 14:40 2.2
2019-Dec-13 14:35 2.2
2019-Dec-13 14:30 2.2
2019-Dec-13 14:25 2.2
2019-Dec-13 14:20 1.7
2019-Dec-13 14:15 1.7
2019-Dec-13 14:10 115 1.7
2019-Dec-13 14:05 114 1.7
2019-Dec-13 14:00 114 1.1